Location: Launois
(49.6535°N, 4.5395°E)
Time: 12:11:11
(UTC+00:00)

BREEZE-M DEB (TANK) - Pass Details

Date: 23 May 2024
Orbit: 290 x 16913 km, 49.4° (Epoch: 14 June)

Event Time Altitude Azimuth Distance (km) Brightness Sun altitude
Enters shadow 00:03:24 - 280° (W) 2,049 5.8 -19.5°
Exits shadow 00:07:59 43° 159° (SSE) 884 3.4 -19.4°
Drops below altitude 10° 00:13:33 10° 122° (ESE) 3,456 6.6 -19.3°
Sets 00:19:18 0° 119° (ESE) 6,078 7.9 -19.1°
